Location: Unspecified
(22.6800°N, 112.2000°E)
Time: 09:57:09
(UTC+08:00)

S-56A Canister/Altair - Pass Details

Date: 28 July 2021
Orbit: 632 x 2500 km, 38.9° (Epoch: 21 September)

Event Time Altitude Azimuth Distance (km) Brightness Sun altitude
Rises 15:14:49 0° 238° (WSW) 5,256 12.2 53.2°
Reaches altitude 10° 15:17:54 10° 239° (WSW) 4,464 12.1 52.5°
Maximum altitude 15:31:05 82° 327° (NNW) 2,439 11.1 49.5°
Drops below altitude 10° 15:46:25 10° 55° (NE) 5,095 11.5 45.9°
Sets 15:50:14 0° 57° (ENE) 6,007 11.7 45.0°
